Погода Остров Котельный

Погода Остров Котельный : погода сейчас, прогноз погоды и архив. Всё, что Вы хотите узнать о погоде Остров Котельный!

Поиск расширенной информации на нашем сайте:

Другие новости

Новости СМИ2

Главная страница сайта

Новости сайта

03.07.2017

Напоминаем, что на нашем специализированном сайте Метеоцентр.Азия вы можете получить высокодетализированные автоматические прогнозы погоды по пунктам России, СНГ и мира в авиационном формате (включающие направление и скорость ветра, видимость, явления погоды, количество и форму облачности, нижнюю и верхнюю границу облачности).

Рекомендуем: Самая детальная информация Установка рулевой колонки тут.

Погода Остров Котельный - сегодня

Время (UTC), дата Ветер
(°,м/с) 
Видим.   Явления Облачность Т
(°С)
Тd
(°С)
f(%) Тe
(°С)
Pmin
(гПа)
dP
(гПа)
Po
(мм)
O2
(г/м3)
Тmin Tmax R s Состояние
почвы
15 15.08.17 110 (В) 4000 м  дымка  9/9 300 м 
[Sc]
+1 +0.5 96 1013.6  -0.6  759  305           
18 15.08.17 130 (ЮВ) 20000 м    9/6 300 м средняя, верхняя 
[Sc|Ac trans|Ci fib]
+1.3 +0.8 96 1012.8  -0.8  758  304           
21 15.08.17 110 (В) 20000 м    8/6 300 м средняя 
[Sc|Ac trans]
+1.6 +1.1 96 1012.8  758  304           
03 16.08.17 130 (ЮВ) 20000 м  {дождь}  10/10 300 м 
[Sc]
+3.1 +2.1 93 +2  1012.4  -0.3  758  302           
06 16.08.17 130 (ЮВ) 20000 м  {дождь}  10/10 300 м 
[Sc]
+3.7 +2.5 92 +2  1012.8  0.4  758  301           
09 16.08.17 130 (ЮВ) 20000 м    10/10 300 м 
[Sc]
+3.5 +2.2 91 +3  1013.2  0.4  758  301           
12 16.08.17 130 (ЮВ) 20000 м    10/10 300 м 
[Sc]
+3.1 +2.3 94 +3  1013  -0.2  758  302    +3.8  0.1     
15 16.08.17 160 (Ю) 20000 м    10/10 300 м 
[Sc]
+2.4 +1.9 97 +2  1013.5  0.5  759  303           
18 16.08.17 200 (Ю) 4000 м  дымка  10/10 300 м 
[Sc]
+2.8 +2.5 98 +4  1013.9  0.4  759  302           
21 16.08.17 260 (З) 20000 м    10/10 300 м 
[Sc]
+3.5 +3 97 +3  1013.8  -0.1  759  301           
00 17.08.17 250 (З) 4000 м  дымка  10/10 300 м 
[Sc]
+3.9 +3.4 97 +3  1014.2  0.4  759  301  +2.2        влажная 
03 17.08.17 240 (ЮЗ) 20000 м    10/10 300 м 
[Sc]
+3.5 +3 97 +2  1013.9  -0.3  759  302           
06 17.08.17 230 (ЮЗ) 10 км  слаб. дождь  10/10 300 м 
[Sc]
+3.2 +2.7 97 +1  1013  -0.9  758  302           
09 17.08.17 230 (ЮЗ) 10 км  слаб. дождь  10/8 300 м средняя 
[Frnb|Ac As]
+2.2 +1.7 96 1012.3  -0.7  758  303           
12 17.08.17 230 (ЮЗ) 20000 м  {дождь}  10/10 300 м 
[Sc]
+2.2 +1.7 96 +1  1011.3  -1  757  302    +4.1     
15 17.08.17 130 (ЮВ) 4000 м  в посл. час дождь  10/10 300 м 
[Sc]
+2.8 +2.3 97 +2  1009.5  -1.8  756  301           
18 17.08.17 130 (ЮВ) 4000 м  дымка{дождь}  10/10 300 м 
[Sc]
+2.9 +2.6 98 +2  1007.6  -1.8  754  300           
21 17.08.17 110 (В) 4000 м  дымка  10/10 300 м 
[Sc]
+3.7 +3.5 99 +3  1006.8  -0.8  754  299           
00 18.08.17 120 (ЮВ) 4000 м  слаб. морось  10/10 300 м 
[St]
+3.6 +3.1 97 +3  1006.4  -0.4  753  299  +2    0.7    влажная 
03 18.08.17 100 (В) 20000 м  {морось}  10/10 300 м 
[Sc]
+4.3 +3.8 97 +3  1006.2  -0.2  753  298           
06 18.08.17 090 (В) 20000 м  {морось}  10/10 300 м 
[Sc]
+3.7 +3.2 97 +2  1006  -0.2  753  299           
09 18.08.17 100 (В) 10 км  слаб. ливневой дождь  10/8 300 м кучево-дожд., средняя 
[Cb cap|Ac trans]
+4.4 +3.9 97 +2  1006  753  298           
12 18.08.17 090 (В) 20000 м  в посл. час ливневой дождь  9/6 300 м средняя, верхняя 
[Sc|Ac trans|Ci fib]
+2.6 +2.1 96 +1  1005.4  -0.6  753  300    +5.4     
15 18.08.17 080 (В) 4000 м  дымка  10/10 300 м 
[Sc]
+2.4 +1.9 97 1006  0.6  753  301           
18 18.08.17 060 (СВ) 2000 м  дымка  10/10 300 м 
[St]
+1.2 +0.9 98 -1  1007.1  754  302           
Время (UTC), дата Ветер
(°,м/с) 
Видим.   Явления Облачность Т
(°С)
Тd
(°С)
f(%) Тe
(°С)
Pmin
(гПа)
dP
(гПа)
Po
(мм)
O2
(г/м3)
Тmin Tmax R s Состояние
почвы

Для получения пояснительной информации подведите курсор к названию столбца.

ПОГОДА Остров Котельный - архив

Всё, что Вы хотите узнать о погоде Остров Котельный - удобно и подробно!

Выберите нужную дату (начиная с 1 января 2015* года) и нажмите кнопку "Найти".
Будут отображены архивные сводки погоды по пункту Остров Котельный, начиная с указанной даты.


Отображать данные в формате CSV (для использования в таблицах Excel)


Внимание! Наш архив погоды предназначен исключительно для личного некоммерческого использования в познавательных целях. Если Вам необходимы официальные справки о состоянии погоды (для производственных, юридических, коммерческих и т.п. целей), обращайтесь в органы Росгидромета.

*Примечание: данная дата относится к архиву по метеостанциям СССР (Россия, СНГ, Балтия).
Архив по метеостанциям Зарубежной Европы и Азии (кроме Китая) хранится 10 дней, по другим регионам земного шара (Китай, Африка, Америка, Австралия, Океания) - 1 день.

Остров Котельный - район местоположения метеостанции


Название, широта, долгота, высота метеостанции:
Остров Котельный 76°ш. 137.9°д. 8 м над ур. моря [Российская Федерация]

Дополнительная информация

В oтличие oт бoльшинства пoгoдных сайтoв мы публикуем пoдрoбную метеoинфoрмацию в детальнoм прoфессиoнальнoм фoрмате.

Характеристики температуры и влажнoсти вoздуха измеряются на высoте 2 м в тени вдали oт зданий и деревьев.
Скoрoсть ветра измеряется на высoте 10 м (на урoвне рoста челoвека скoрoсть ветра ниже в 1.5-2 раза). Если метеoстанция нахoдится в гoрoде или в лесу, тo скoрoсть ветра занижена на 2-4 м/с пo сравнению с oткрытым местoм. Скoрoсть ветра над акватoриями крупных рек и oзёр, а также на вершинах хoлмoв на 2-5 м/с выше, чем в oбычных услoвиях.
Атмoсфернoе давление в разных тoчках местнoсти мoжет значительнo oтличаться oт давления на метеoстанции, в зависимoсти oт услoвий рельефа (при пoдъёме на 10 м давление пoнижается примернo на 1 мм рт.ст.).